Le nostre stazioni meteo in Italia

Pubblicità
Il mio iltempo24.it
Lamezia Terme, Italia (16362): Temperatura & dewpoint: 14.01.2019 07:00:00 - 20.01.2019 07:00:00 (CET)Lamezia Terme, Italia (16362): velocità del vento: 14.01.2019 07:00:00 - 20.01.2019 07:00:00 (CET)Lamezia Terme, Italia (16362): direzione del vento: 14.01.2019 07:00:00 - 20.01.2019 07:00:00 (CET)Lamezia Terme, Italia (16362): reduced air pressure: 14.01.2019 07:00:00 - 20.01.2019 07:00:00 (CET)Lamezia Terme, Italia (16362): visibility: 14.01.2019 07:00:00 - 20.01.2019 07:00:00 (CET)Lamezia Terme, Italia (16362): precipitazioni: 14.01.2019 07:00:00 - 20.01.2019 07:00:00 (CET)
Data & Tempo tt [°C] td [°C] ff [km/h] ff [kn] dd ppp [hPa] vv [km] rr [mm]
20.01.2019 07:00:00 - - - - - - - -
20.01.2019 06:00:00 3,0 3,0 11 6 E - 10 -
20.01.2019 05:00:00 4,0 3,0 13 7 E - 10 -
20.01.2019 04:00:00 4,0 3,4 13 7 E 1013,9 10 -
20.01.2019 03:00:00 4,0 3,0 9 5 E - 10 -
20.01.2019 02:00:00 4,0 3,0 11 6 E - 10 -
20.01.2019 01:00:00 4,2 3,4 9 5 E 1014,6 10 0,0
20.01.2019 00:00:00 3,0 3,0 8 4 E - 10 -
19.01.2019 23:00:00 3,0 2,0 8 4 ENE - 9 -
19.01.2019 22:00:00 3,7 2,9 8 4 E 1015,0 10 -
19.01.2019 21:00:00 6,0 4,0 8 4 NE - 10 -
19.01.2019 20:00:00 8,0 5,0 5 3 - - 10 -
19.01.2019 19:00:00 10,4 5,8 11 6 O 1014,0 10 0,0
19.01.2019 18:00:00 11,0 6,0 13 7 O - 10 -
19.01.2019 17:00:00 12,0 8,0 21 11 O - 10 -
19.01.2019 16:00:00 13,2 8,4 21 11 O 1013,2 10 -
19.01.2019 15:00:00 14,0 8,0 26 14 O - 10 -
19.01.2019 14:00:00 14,0 9,0 21 11 OSO - 10 -
19.01.2019 13:00:00 13,8 8,1 18 10 SO 1014,0 10 0,0
19.01.2019 12:00:00 14,0 7,0 13 7 OSO - 10 -
19.01.2019 11:00:00 13,0 5,0 5 3 - - 10 -
19.01.2019 10:00:00 12,4 7,1 2 1 SE 1015,2 10 -
19.01.2019 09:00:00 6,0 4,0 9 5 ESE - 10 -
19.01.2019 08:00:00 4,0 2,0 9 5 ENE - 10 -
19.01.2019 07:00:00 3,8 2,3 11 6 ENE 1014,6 10 0,0
19.01.2019 06:00:00 3,0 2,0 11 6 E - 10 -
19.01.2019 05:00:00 - - - - - - - -
19.01.2019 04:00:00 3,0 1,9 9 5 ENE 1014,6 10 -
19.01.2019 03:00:00 4,0 2,0 9 5 ENE - 10 -
19.01.2019 02:00:00 4,0 2,0 15 8 E - 10 -
19.01.2019 01:00:00 3,9 2,4 13 7 ENE 1015,5 10 0,0
19.01.2019 00:00:00 - - - - - - - -
18.01.2019 23:00:00 4,0 5,0 13 7 E - 10 -
18.01.2019 22:00:00 5,1 3,8 13 7 E 1016,2 10 -
18.01.2019 21:00:00 5,0 4,0 11 6 E - 10 -
18.01.2019 20:00:00 7,0 7,0 9 5 E - 10 -
18.01.2019 19:00:00 7,9 6,4 2 1 NNE 1016,1 10 0,0
18.01.2019 18:00:00 11,0 8,0 4 2 - - 10 -
18.01.2019 17:00:00 13,0 9,0 9 5 SO - 10 -
18.01.2019 16:00:00 13,8 8,8 13 7 OSO 1015,8 10 -
18.01.2019 15:00:00 14,0 9,0 11 6 O - 10 -
18.01.2019 14:00:00 14,0 8,0 13 7 O - 10 -
18.01.2019 13:00:00 14,5 7,8 13 7 O 1015,7 10 0,0
18.01.2019 12:00:00 15,0 7,0 8 4 NO - 10 -
18.01.2019 11:00:00 14,0 7,0 5 3 O - 10 -
18.01.2019 10:00:00 13,2 6,8 4 2 ESE 1017,6 10 -
18.01.2019 09:00:00 11,0 8,0 5 3 E - 10 -
18.01.2019 08:00:00 7,0 6,0 8 4 E - 10 -
18.01.2019 07:00:00 6,9 6,0 8 4 E - 10 0,0
18.01.2019 06:00:00 7,0 6,0 8 4 E - 10 -
18.01.2019 05:00:00 7,0 6,0 9 5 E - 10 -
18.01.2019 04:00:00 7,5 6,0 8 4 E - 10 -
18.01.2019 03:00:00 7,0 6,0 8 4 E - 10 -
18.01.2019 02:00:00 8,0 6,0 8 4 E - 10 -
18.01.2019 01:00:00 7,7 5,7 9 5 E - 10 0,0
18.01.2019 00:00:00 9,0 6,0 9 5 E - 10 -
17.01.2019 23:00:00 8,0 5,0 8 4 E - 10 -
17.01.2019 22:00:00 8,2 5,5 5 3 E - 10 -
17.01.2019 21:00:00 8,0 4,0 9 5 E - 10 -
17.01.2019 20:00:00 8,0 5,0 9 5 ENE - 10 -
17.01.2019 19:00:00 7,5 4,9 9 5 E - 10 -
17.01.2019 18:00:00 9,0 4,0 2 1 - - 10 -
17.01.2019 17:00:00 11,0 5,0 4 2 - - 10 -
17.01.2019 16:00:00 10,9 5,0 5 3 O 1019,1 10 -
17.01.2019 15:00:00 14,0 2,0 15 8 O - 10 -
17.01.2019 14:00:00 - - - - - - - -
17.01.2019 13:00:00 14,4 -1,9 13 7 O 1020,1 10 -
17.01.2019 12:00:00 14,0 -1,0 5 3 - - 10 -
17.01.2019 11:00:00 13,0 -3,0 4 2 - - 10 -
17.01.2019 10:00:00 10,5 -50,1 4 2 N 1022,5 10 -
17.01.2019 09:00:00 5,0 4,0 8 4 E - 10 -
17.01.2019 08:00:00 0,0 0,0 8 4 E - 10 -
17.01.2019 07:00:00 -0,9 -1,0 9 5 E 1022,4 10 0,0
17.01.2019 06:00:00 -1,0 -1,0 9 5 E - 10 -
17.01.2019 05:00:00 0,0 0,0 9 5 E - 10 -
17.01.2019 04:00:00 -0,7 -1,1 11 6 E 1023,2 10 -
17.01.2019 03:00:00 0,0 0,0 9 5 E - 10 -
17.01.2019 02:00:00 0,0 0,0 11 6 E - 10 -
17.01.2019 01:00:00 0,4 -0,1 5 3 E 1024,0 10 0,0
17.01.2019 00:00:00 2,0 1,0 8 4 E - 10 -
16.01.2019 23:00:00 2,0 0,0 5 3 - - 10 -
16.01.2019 22:00:00 3,0 0,3 8 4 ENE 1024,7 10 -
16.01.2019 21:00:00 7,0 - 5 3 - - 10 -
16.01.2019 20:00:00 8,0 - 15 8 O - 10 -
16.01.2019 19:00:00 7,7 -51,7 15 8 O 1024,2 10 0,0
16.01.2019 18:00:00 10,0 1,0 18 10 O - 10 -
16.01.2019 17:00:00 10,0 2,0 13 7 O - 10 -
16.01.2019 16:00:00 11,2 2,0 16 9 OSO 1024,0 10 -
16.01.2019 15:00:00 12,0 2,0 13 7 O - 10 -
16.01.2019 14:00:00 12,0 2,0 11 6 O - 10 -
16.01.2019 13:00:00 11,9 2,1 15 8 SSO 1024,9 15 0,0
16.01.2019 12:00:00 11,0 2,0 15 8 SO - 10 -
16.01.2019 11:00:00 11,0 1,0 11 6 OSO - 10 -
16.01.2019 10:00:00 8,9 -0,3 8 4 SSO 1026,7 15 -
16.01.2019 09:00:00 2,0 -1,0 8 4 E - 10 -
16.01.2019 08:00:00 -1,0 -3,0 9 5 E - 10 -
16.01.2019 07:00:00 -2,5 -3,9 9 5 E 1025,8 15 0,0
16.01.2019 06:00:00 -2,0 -4,0 11 6 E - 10 -
16.01.2019 05:00:00 -2,0 -4,0 15 8 E - 10 -
16.01.2019 04:00:00 -1,2 -3,7 9 5 ENE 1025,0 15 -
16.01.2019 03:00:00 -1,0 -4,0 8 4 E - 10 -
16.01.2019 02:00:00 -1,0 -3,0 13 7 E - 10 -
16.01.2019 01:00:00 0,0 -3,2 11 6 ESE 1024,2 15 0,0
16.01.2019 00:00:00 1,0 -3,0 9 5 SE - 10 -
15.01.2019 23:00:00 8,0 -8,0 18 10 NNE - 10 -
15.01.2019 22:00:00 8,1 -7,8 16 9 NNE 1022,7 15 -
15.01.2019 21:00:00 9,0 -10,0 21 11 N - 10 -
15.01.2019 20:00:00 8,0 -9,0 8 4 ESE - 10 -
15.01.2019 19:00:00 9,1 -10,4 16 9 N 1020,5 15 0,0
15.01.2019 18:00:00 9,0 -9,0 16 9 N - 10 -
15.01.2019 17:00:00 11,0 -8,0 24 13 N - 10 -
15.01.2019 16:00:00 12,0 -6,9 16 9 N 1017,7 15 -
15.01.2019 15:00:00 13,0 -7,0 15 8 NNE - 10 -
15.01.2019 14:00:00 13,0 -6,0 21 11 NNE - 10 -
15.01.2019 13:00:00 13,5 -8,2 13 7 N 1015,2 15 0,0
15.01.2019 12:00:00 13,0 1,0 24 13 N - 10 -
15.01.2019 11:00:00 13,0 -1,0 26 14 N - 10 -
15.01.2019 10:00:00 12,7 0,1 13 7 NE 1013,8 15 -
15.01.2019 09:00:00 10,0 2,0 4 2 - - 10 -
15.01.2019 08:00:00 10,0 0,0 13 7 N - 10 -
15.01.2019 07:00:00 9,4 0,6 18 10 NNE 1010,3 10 -
15.01.2019 06:00:00 9,0 0,0 13 7 NNO - 10 -
15.01.2019 05:00:00 9,0 2,0 18 10 N - 10 -
15.01.2019 04:00:00 10,1 2,1 24 13 N 1008,0 10 -
15.01.2019 03:00:00 10,0 3,0 4 2 - - 10 -
15.01.2019 02:00:00 12,0 2,0 8 4 ENE - 10 -
15.01.2019 01:00:00 9,7 6,8 5 3 S 1005,6 10 0,0
15.01.2019 00:00:00 10,0 6,0 4 2 - - 10 -
14.01.2019 23:00:00 11,0 6,0 11 6 OSO - 10 -
14.01.2019 22:00:00 9,4 6,9 9 5 OSO 1004,2 10 -
14.01.2019 21:00:00 10,0 8,0 9 5 O - 10 -
14.01.2019 20:00:00 10,0 7,0 8 4 - - 10 -
14.01.2019 19:00:00 7,8 7,1 4 2 OSO 1002,4 10 -
14.01.2019 18:00:00 10,0 7,0 4 2 - - 10 -
14.01.2019 17:00:00 9,0 9,0 8 4 SSE - 10 -
14.01.2019 16:00:00 9,4 8,6 4 2 SO 1000,5 5 -
14.01.2019 15:00:00 10,0 10,0 4 2 NNE - 5 -
14.01.2019 14:00:00 11,0 10,0 5 3 ONO - 10 -
14.01.2019 13:00:00 11,4 10,1 2 1 SSO 1000,5 10 -
14.01.2019 12:00:00 12,0 8,0 11 6 O - 10 -
14.01.2019 11:00:00 13,0 8,0 15 8 O - 10 -
14.01.2019 10:00:00 12,4 8,2 26 14 O 1004,3 10 -
14.01.2019 09:00:00 12,0 9,0 24 13 O - 10 -
14.01.2019 08:00:00 7,0 7,0 2 1 - - 10 -
14.01.2019 07:00:00 6,7 6,7 4 2 SO 1005,2 10 0,0

tt = Temperatura
td = dewpoint
ff = velocità del vento
dd = direzione del vento
ppp = reduced air pressure
vv = visibility
rr = precipitazioni

Stazioni seguenti

WeatherPro
AMSI
MeteoEarth